• Join FlightAware (Why Join?)
  • Login
  • US Flag 
12:19AM EST


 

Airport Tracker/Info


-or-


 

Live Flight TrackerFlight Track Log ✈ SWA1635 ✈ 06-May-2013 ✈ KLAX - KSJC

Flight Track Log - Related Links

Times and Time Zones

All times are in EDT time to prevent confusion due to time zone crossing. See the SWA1635 flight status page for this flight to view local times or setup timezone preferences in your user account.

Time Position Orientation Groundspeed Altitude Reporting Facility
EDT Latitude Longitude Course Direction KTS MPH feet Rate Location/Type
02:58PM 33.8275 -118.5786 321° Northwest 344 396 13,000  Level Los Angeles Center
03:00PM 33.8397 -118.6992 277° West 337 388 13,000  Level Los Angeles Center
03:01PM 33.8483 -118.7986 276° West 328 377 13,000 1,662 Level Los Angeles Center
03:03PM 33.9992 -118.9261 325° Northwest  Level Estimated
03:04PM 34.3742 -118.8308 321° Northwest  Level Estimated
03:04PM 34.0192 -119.0983 325° Northwest 362 417 20,200  Level Los Angeles Center
03:05PM 34.1006 -119.2108 311° West 372 428 23,000 2,277 Climbing Los Angeles Center
03:06PM 34.1672 -119.3033 311° West 368 423 25,400 1,809 Climbing Los Angeles Center
03:07PM 34.2514 -119.4189 311° West 379 436 27,100 1,839 Climbing Los Angeles Center
03:08PM 34.3214 -119.5161 311° West 385 443 29,200 2,323 Climbing Los Angeles Center
03:09PM 34.4033 -119.6269 312° West 368 423 31,900 1,613 Climbing Los Angeles Center
03:10PM 34.5350 -119.3837 325° Northwest  Level Estimated
03:11PM 34.5422 -119.8008 314° West 368 423 34,200  Level Los Angeles Center
03:12PM 34.6408 -119.8786 327° Northwest 391 450 35,200 871 Climbing Los Angeles Center
03:13PM 34.7311 -119.9536 326° Northwest 391 450 36,000 259 Climbing Los Angeles Center
03:15PM 34.8950 -120.0908 326° Northwest 397 457 36,000  Level Los Angeles Center
03:16PM 35.0172 -120.1908 326° Northwest 403 464 36,000  Level Los Angeles Center
03:19PM 35.2017 -120.3458 326° Northwest 406 467 36,000  Level Los Angeles Center
03:20PM 35.2939 -120.4233 326° Northwest 405 466 36,000  Level Los Angeles Center
03:21PM 35.3869 -120.5033 325° Northwest 410 472 36,000  Level Los Angeles Center
03:22PM 35.5003 -120.5994 325° Northwest 414 476 36,000  Level Los Angeles Center
03:23PM 35.6122 -120.6947 325° Northwest 410 472 36,000  Level Oakland Center
03:24PM 35.7069 -120.7756 325° Northwest 413 475 36,000 -341 Level Oakland Center
03:25PM 35.8017 -120.8553 326° Northwest 413 475 35,300 -1,749 Descending Oakland Center
03:27PM 35.9711 -121.0019 325° Northwest 414 476 30,900 -2,267 Descending Los Angeles Center
03:29PM 36.1667 -121.1667 326° Northwest 388 447 26,800 -2,163 Descending Northern Cal TRACON
03:30PM 36.2500 -121.2500 321° Northwest 384 442 24,700 -1,912 Descending Northern Cal TRACON
03:32PM 36.4017 -121.3729 325° Northwest  Level FlightAware Approximate
03:32PM 36.4494 -121.4131 325° Northwest 372 428 20,300  Level Oakland Center
03:33PM 36.5383 -121.4733 331° Northwest 364 419 17,700 -2,293 Descending Oakland Center
03:34PM 36.6281 -121.5300 333° Northwest 363 418 15,600 -2,026 Descending Oakland Center
03:36PM 36.7667 -121.6167 333° Northwest 333 383 12,500 -1,746 Descending Northern Cal TRACON
03:38PM 36.9167 -121.7333 328° Northwest 299 344 9,400 -1,539 Descending Northern Cal TRACON
03:38PM 36.9475 -121.7481 339° North 302 348 8,600 -1,316 Descending Oakland Center
03:40PM 37.1067 -121.8578 331° Northwest 295 339 6,000 -1,011 Descending Oakland Center
03:41PM 37.1772 -121.9039 332° Northwest 288 331 5,500 -780 Descending Oakland Center
03:42PM 37.2467 -121.9461 334° Northwest 282 325 4,400 -919 Descending Oakland Center
03:46PM 37.3500 -121.9167 North  Level FlightAware Approximate
03:46PM 37.3928 -121.9633 North 176 203 800  Level Oakland Center
03:47PM 37.3833 -121.9500 132° Southeast 134 154 400 -689 Descending Northern Cal TRACON
03:47PM 37.3650 -121.9319 142° Southeast 149 171 100 -474 Descending Oakland Center
03:49PM 37.3627 -121.9291 North  Level Estimated
03:56PM 37.3627 -121.9291 North  Level Estimated